Regional Weather Roundup
Issued by NWS

Home | Current Version | Previous Version | Text Only | Print | Product List | Glossary On
Versions: 1 2 3 4 5 6 7 8 9 10 11 12 13 14 15 16 17 18 19 20 21 22 23 24 25 26 27 28 29 30 31 32 33 34 35 36 37 38 39 40 41 42 43 44 45 46 47 48 49 50
000
ASUS43 KDTX 241910
RWRMI
MICHIGAN HOURLY REGIONAL WEATHER ROUNDUP
NATIONAL WEATHER SERVICE DETROIT/PONTIAC MI
300 PM EDT SUN JUL 24 2016

NOTE: "FAIR" INDICATES FEW OR NO CLOUDS BELOW 12,000 FEET WITH NO
SIGNIFICANT WEATHER AND/OR OBSTRUCTION TO VISIBILITY.

MIZ047>049-052>055-059>063-066>070-074>076-081>083-242000-
SOUTHEAST LOWER MICHIGAN

CITY           SKY/WX    TMP DP  RH WIND       PRES   REMARKS
ADRIAN         CLOUDY    73  71  93 SW8       29.96F
ALMA           CLOUDY    76  73  92 SW13G18   29.88F
ANN ARBOR      CLOUDY    77  72  84 SW8       29.95F
BAD AXE        CLOUDY    81  70  68 S15       29.90F
CARO           CLOUDY    79  72  77 S10       29.88F
DETROIT CITY   CLOUDY    77  70  79 W14G20    29.95S
DETROIT        CLOUDY    76  70  82 SW10      29.97S
FLINT          CLOUDY    78  70  76 SW8       29.93F
GROSSE ILE     CLOUDY    76  69  80 SW10      29.95S
HOWELL         CLOUDY    73  71  93 S6        29.95F

CITY           SKY/WX    TMP DP  RH WIND       PRES   REMARKS
JACKSON        CLOUDY    76  74  93 SW8       29.95F
LAMBERTVILLE   DRIZZLE   74  70  89 S5        29.96F
LANSING        CLOUDY    78  70  76 SW12      29.92F
LAPEER         PTSUNNY   76  69  80 W10G17    29.95F
MASON          CLOUDY    73  70  90 SW3       29.94F
MONROE         CLOUDY    75  71  86 SW10      29.95F
MT. CLEMENS    PTSUNNY   78  72  82 SW7       29.92F
PONTIAC        CLOUDY    73  69  87 W3        29.94F
PORT HOPE        N/A     82  71  69 SW9G20    29.86F
PORT HURON     CLOUDY    75  72  88 S3        29.94F
TRI CITIES     MOSUNNY   78  71  79 SW13      29.89F
MIDLAND        DRIZZLE   76  71  87 SE5       29.87S
TROY           CLOUDY    76  70  82 SW6       29.96F
SAGINAW HB     MOSUNNY   79  70  73 S14       29.86F
$$
MIZ043>046-050>051-056>058-064>065-071>073-077>080-242000-
SOUTHWEST LOWER MICHIGAN

CITY           SKY/WX    TMP DP  RH WIND       PRES   REMARKS
BATTLE CREEK   CLOUDY    72  72 100 S7        29.95F
BENTON HARBOR  CLOUDY    85  75  72 SE8G21    29.90F HX  93
BIG RAPIDS     PTSUNNY   78  75  89 S10       29.86F
COLDWATER      CLOUDY    79  73  82 S3        29.95F
FREMONT        FAIR      81  77  88 S15G23    29.85F
HOLLAND        CLOUDY    84  74  71 S14       29.90F HX  91
GRAND RAPIDS   PTSUNNY   82  72  71 S13       29.91F
IONIA          FAIR      80  69  68 SW15      29.91F
KALAMAZOO      CLOUDY    82  74  76 S7        29.93F
LUDINGTON      CLOUDY    81  74  77 S20       29.83F
MARSHALL       CLOUDY    75  74  98 S3        29.95F
MOUNT PLEASANT CLOUDY    76  71  86 SW5       29.87F
MUSKEGON       MOSUNNY   86  74  67 S16G24    29.86F HX  94
SOUTH HAVEN    CLOUDY    84  75  74 S14       29.90F HX  92
$$
MIZ016>042-242000-
NORTHERN LOWER MICHIGAN

CITY           SKY/WX    TMP DP  RH WIND       PRES   REMARKS
ALPENA         CLOUDY    82  68  62 S12       29.84S
BEAVER ISLAND  CLOUDY    74  69  85 SW14      29.81F
BELLAIRE       CLOUDY    83  69  62 S10G16    29.82F
CADILLAC       PTSUNNY   79  70  74 SW9G16    29.87F
CHARLEVOIX     CLOUDY    79  69  71 SW9G17    29.85S
FRANKFORT      CLOUDY    77  69  77 SW7       29.82F
GAYLORD        CLOUDY    79  69  71 S9        29.86F
GRAYLING       CLOUDY    82  71  69 SW8       29.87F
HARBOR SPRINGS CLOUDY    77  71  81 SW9       29.82F
HOUGHTON LAKE  CLOUDY    76  70  82 S12       29.89F
MANISTEE       CLOUDY    80  72  76 S8G17     29.82F
OSCODA         CLOUDY    78  69  73 S13G28    29.87R
PELLSTON       CLOUDY    80  70  71 SW9       29.83S
ROGERS CITY    CLOUDY    82  70  66 SW6       29.82F
TRAVERSE CITY  PTSUNNY   84  71  65 SW9G18    29.80F
$$
MIZ007>008-015-242000-
EASTERN UPPER MICHIGAN

CITY           SKY/WX    TMP DP  RH WIND       PRES   REMARKS
KINROSS        CLOUDY    71  70  96 S8        29.83F FOG
MACKINAC ISLAN DRIZZLE   70  70 100 W3        29.82F
NEWBERRY       CLOUDY    71  70  97 SW12G22   29.79F FOG
S. S. MARIE    CLOUDY    71  69  93 SE8       29.82S FOG
MUNISING         N/A     83  74  74 VRB7      29.73F
$$
MIZ004>006-011>014-085-242000-
CENTRAL UPPER MICHIGAN

CITY           SKY/WX    TMP DP  RH WIND       PRES   REMARKS
MANISTIQUE     CLOUDY    69  68  97 SW9       29.78F FOG
ESCANABA         N/A    N/A N/A N/A MISG        N/A
MENOMINEE      CLOUDY    79  75  87 VRB5      29.78F
SAWYER-GWINN   PTSUNNY   82  70  65 SW12      29.77F
$$
MIZ001>003-009>011-084-242000-
WESTERN UPPER MICHIGAN

CITY           SKY/WX    TMP DP  RH WIND       PRES   REMARKS
IRON MOUNTAIN  CLOUDY    80  71  74 SW7       29.78S
HOUGHTON       MOSUNNY   78  66  66 W16G25    29.75S
COPPER HARBOR    N/A     77  68  73 VRB7G17   29.72F
IRONWOOD       CLOUDY    81  66  61 W12G22    29.78R
$$

ABBREVIATIONS USED IN REMARKS
   TC - TEMPERATURE IN CELSIUS
  WCI - WIND CHILL INDEX
   HX - HEAT INDEX
  VSB - VISIBILITY




USA.gov is the U.S. government's official web portal to all federal, state and local government web resources and services.